[[{"header":{"parameterUnit":"m.s-1","parameterCategory":1,"la1":30.2991,"la2":30.254,"lo1":-89.0895,"lo2":-89.0444,"dx":0.0017,"dy":0.0017,"nx":28,"ny":28,"refTime":"2022-11-12T09:00:00:Z","depth":0,"parameterNumber":2,"parameterNumberName":"U-component_of_WINDS"},"data":[0,0,0,0,0,0,0,0,0,0,0,0,0,0,0,0,0,0,0,0,0,0,0,0,0,0,0,0,0,0,0,0,0,0,0,0,0,0,0,0,0,0,0,0,0,0,0,0,0,0,0,0,0,0,0,0,0,0,-5.1968,-5.1968,0,-5.2001,-5.2001,-5.2001,-5.183,-5.1825,-5.182,-5.1815,-5.1849,-5.1854,-5.1859,0,0,0,0,0,0,0,0,0,0,0,0,0,-5.1756,-5.1761,-5.1968,-5.1968,-5.1969,-5.2001,-5.2001,-5.2001,-5.183,-5.1824,-5.1818,-5.1813,-5.1847,-5.1853,-5.186,0,0,0,0,0,0,0,0,0,0,0,0,0,-5.1825,-5.1763,-5.1968,-5.1887,-5.188,-5.2,-5.2001,-5.2002,-5.1832,-5.1824,-5.1817,-5.181,-5.1845,-5.1853,-5.1861,-5.206,0,0,-5.1886,-5.1889,0,0,0,0,0,0,0,0,-5.1821,-5.1833,-5.1899,-5.1893,-5.1886,-5.1903,-5.1938,-5.2021,-5.1834,-5.185,-5.1815,-5.1806,-5.1873,-5.1878,-5.1901,-5.2061,-5.2063,-5.1887,-5.1892,-5.1895,-5.1898,0,0,0,0,0,0,0,-5.1817,-5.183,-5.1981,-5.19,-5.1892,-5.1849,-5.1851,-5.1953,-5.1903,-5.1848,-5.1836,-5.1842,-5.1868,-5.1893,-5.19,-5.2063,-5.1886,-5.1894,-5.1899,-5.1902,-5.2386,-5.2393,0,0,0,0,0,0,-5.1823,-5.1828,-5.198,-5.1982,-5.1834,-5.1859,-5.1861,-5.1905,-5.1901,-5.1893,-5.1848,-5.1834,-5.1883,-5.1891,-5.1901,-5.2131,-5.1895,-5.1903,-5.1908,-5.2378,-5.2388,-5.2396,0,0,0,0,0,0,-5.1819,-5.1838,-5.1978,-5.1901,-5.1916,-5.187,-5.1922,-5.191,-5.1935,-5.1901,-5.1891,-5.1884,-5.1877,-5.1889,-5.2021,-5.213,-5.1907,-5.1914,-5.2369,-5.2381,-5.2392,-5.2595,0,0,0,0,0,0,-5.1813,-5.1838,-5.1913,-5.1904,-5.1921,-5.2099,-5.1929,-5.1916,-5.1949,-5.1931,-5.1932,-5.1925,-5.1872,-5.2009,-5.2029,-5.2137,-5.192,-5.2359,-5.2374,-5.2388,-5.2579,-5.2613,-5.2642,0,0,0,0,0,-5.1807,-5.197,-5.1918,-5.1937,-5.2014,-5.2106,-5.2115,-5.2052,-5.1959,-5.2034,-5.2012,-5.1925,-5.2115,-5.2024,-5.2045,-5.2157,-5.2351,-5.237,-5.2387,-5.2564,-5.2606,-5.2641,0,0,0,0,0,0,-5.1993,-5.1967,-5.1909,-5.2075,-5.2094,-5.2077,-5.2169,-5.2098,-5.2144,-5.2124,-5.2044,-5.2045,-5.219,-5.2187,-5.2086,-5.2348,-5.2217,-5.224,-5.2345,-5.2384,-5.2415,-5.2412,-5.1927,0,0,0,0,0,-5.2054,-5.2131,-5.2103,-5.2252,-5.2264,-5.2216,-5.2253,-5.2203,-5.2219,-5.2226,-5.2214,-5.2233,-5.2296,-5.234,-5.2397,-5.2578,-5.2574,-5.2665,-5.2697,-5.2723,-5.2743,-5.2835,-5.2875,-5.2454,-5.2454,-5.2454,0,0,-5.2179,-5.2175,-5.2228,-5.2289,-5.2298,-5.2378,-5.2224,-5.2316,-5.2374,-5.224,-5.2363,-5.2355,-5.2371,-5.2527,-5.2595,-5.2529,-5.2858,-5.2745,-5.2767,-5.2772,-5.2858,-5.2898,-5.2933,-5.2467,-5.2464,-5.2462,0,0,-5.2449,-5.2454,-5.2577,-5.2588,-5.2603,-5.257,-5.26,-5.2593,-5.2582,-5.2704,-5.2605,-5.2673,-5.2785,-5.28,-5.2822,-5.3096,-5.3016,-5.3117,-5.3281,-5.3372,-5.3405,-5.3434,-5.353,-5.3565,-5.3137,-5.3138,-5.3138,0,-5.2603,-5.272,-5.2649,-5.2747,-5.2776,-5.2658,-5.2781,-5.2796,-5.283,-5.2852,-5.2777,-5.2914,-5.2916,-5.3073,-5.314,-5.3163,-5.3193,-5.3116,-5.3407,-5.3435,-5.3461,-5.3551,-5.3587,-5.315,-5.3148,-5.3147,-5.3146,0,-5.2908,-5.2991,-5.3088,-5.3122,-5.3162,-5.3273,-5.3218,-5.3267,-5.3213,-5.3187,-5.3312,-5.3311,-5.3364,-5.3398,-5.3347,-5.3548,-5.3505,-5.3421,-5.3286,-5.3514,-5.3597,-5.3631,-5.3167,-5.3163,-5.3159,-5.3156,0,0,-5.3296,-5.3288,-5.3325,-5.3337,-5.3345,-5.3407,-5.3512,-5.3564,-5.3606,-5.3633,-5.3718,-5.3815,-5.3735,-5.3761,-5.371,-5.379,-5.4004,-5.3694,-5.3693,-5.375,-5.4223,-5.4285,-5.4326,-5.3952,-5.3958,-5.3963,-5.422,0,-5.3557,-5.3735,-5.3673,-5.3854,-5.3928,-5.3817,-5.3907,-5.3921,-5.39,-5.396,-5.3936,-5.4005,-5.3896,-5.391,-5.3985,-5.3963,-5.4098,-5.3943,-5.4028,-5.4032,-5.4026,-5.437,-5.4437,-5.468,-5.4253,-5.4258,-5.4262,0,-5.3886,-5.3925,-5.4113,-5.4105,-5.4134,-5.4217,-5.4258,-5.4317,-5.433,-5.4308,-5.4337,-5.4268,-5.4369,-5.4237,-5.4373,-5.427,-5.4301,-5.4295,-5.4303,-5.4307,-5.416,-5.4381,-5.4756,-5.4792,-5.4313,-5.4309,-5.4305,0,-5.4147,-5.4246,-5.4371,-5.4386,-5.4381,-5.4441,-5.4442,-5.4447,-5.4482,-5.4518,-5.4539,-5.4588,-5.4614,-5.4653,-5.4599,-5.4508,-5.4743,-5.4606,-5.4726,-5.4728,-5.4779,-5.4777,-5.5162,-5.4804,-5.4804,-5.4803,-5.4802,0,-5.4444,-5.4563,-5.4487,-5.4564,-5.4693,-5.4622,-5.4752,-5.474,-5.4746,-5.4817,-5.4724,-5.4794,-5.4719,-5.4781,-5.4739,-5.4857,-5.4871,-5.4855,-5.4842,-5.4862,-5.4864,-5.488,-5.4861,-5.4812,-5.481,-5.4808,-5.4807,0,-5.4757,-5.4711,-5.4839,-5.4824,-5.4822,-5.4918,-5.4904,-5.4974,-5.4946,-5.5037,-5.5055,-5.5011,-5.5078,-5.5028,-5.5096,-5.5068,-5.5223,-5.5188,-5.5219,-5.5208,-5.533,-5.5318,-5.5738,-5.5788,-5.54,-5.5404,-5.5407,0,-5.4948,-5.5037,-5.503,-5.5071,-5.5078,-5.5145,-5.5179,-5.5112,-5.5152,-5.5172,-5.5239,-5.5299,-5.5343,-5.5457,-5.543,-5.5481,-5.5445,-5.5588,-5.5452,-5.5468,-5.5444,-5.5438,-5.5446,-5.5615,-5.562,-5.5624,-5.5627,0,-5.5292,-5.5265,-5.5318,-5.5363,-5.5407,-5.5439,-5.5464,-5.5503,-5.5434,-5.5484,-5.5551,-5.5586,-5.5654,-5.5714,-5.5755,-5.5754,-5.568,-5.567,-5.57,-5.572,-5.5733,-5.5725,-5.5291,-5.566,-5.5657,-5.5654,-5.5653,-5.5651,-5.5548,-5.5621,-5.5627,-5.5688,-5.57,-5.5725,-5.5789,-5.5768,-5.5824,-5.5873,-5.5831,-5.5912,-5.592,-5.5968,-5.5977,-5.6038,-5.5979,-5.6024,-5.6034,-5.6046,-5.6062,-5.5726,-5.6046,-5.6045,-5.6044,-5.6043,-5.6043,0,-5.5885,-5.5883,-5.5941,-5.5978,-5.6026,-5.5951,-5.5974,-5.602,-5.6092,-5.6107,-5.6151,-5.6229,-5.6286,-5.6264,-5.6315,-5.6368,-5.6335,-5.6383,-5.6378,-5.6378,-5.6113,-5.6081,-5.6409,-5.6409,-5.6409,-5.6409,-5.6409,-5.6409,-5.6066,-5.6183,-5.6157,-5.6279,-5.6276,-5.6354,-5.6374,-5.6396,-5.6407,-5.6497,-5.6544,-5.6529,-5.6529,-5.6578,-5.6627,-5.6619,-5.6641,-5.6702,-5.6681,-5.6434,-5.6397,-5.6363,-5.6332,-5.6708,-5.6708,-5.6941,-5.6943,-5.6945]},{"header":{"parameterUnit":"m.s-1","parameterCategory":1,"la1":30.2991,"la2":30.254,"lo1":-89.0895,"lo2":-89.0444,"dx":0.0017,"dy":0.0017,"nx":28,"ny":28,"refTime":"2022-11-12T09:00:00:Z","depth":0,"parameterNumber":3,"parameterNumberName":"V-component_of_WINDS"},"data":[0,0,0,0,0,0,0,0,0,0,0,0,0,0,0,0,0,0,0,0,0,0,0,0,0,0,0,0,0,0,0,0,0,0,0,0,0,0,0,0,0,0,0,0,0,0,0,0,0,0,0,0,0,0,0,0,0,0,-4.3608,-4.3609,0,-4.3679,-4.368,-4.3681,-4.3646,-4.3645,-4.3643,-4.3641,-4.3709,-4.3712,-4.3716,0,0,0,0,0,0,0,0,0,0,0,0,0,-4.3437,-4.344,-4.3608,-4.3609,-4.361,-4.3679,-4.368,-4.3681,-4.3647,-4.3644,-4.3642,-4.364,-4.3708,-4.3712,-4.3716,0,0,0,0,0,0,0,0,0,0,0,0,0,-4.351,-4.3441,-4.3608,-4.3601,-4.3601,-4.3679,-4.368,-4.3681,-4.3647,-4.3644,-4.3642,-4.3639,-4.3706,-4.3711,-4.3717,-4.3803,0,0,-4.3732,-4.3735,0,0,0,0,0,0,0,0,-4.3506,-4.3516,-4.3601,-4.3602,-4.3602,-4.3651,-4.3644,-4.3722,-4.3648,-4.363,-4.3641,-4.3638,-4.3691,-4.3698,-4.3717,-4.3806,-4.3809,-4.3733,-4.3736,-4.3738,-4.374,0,0,0,0,0,0,0,-4.3501,-4.3513,-4.3636,-4.3603,-4.3603,-4.3593,-4.36,-4.3659,-4.3675,-4.3631,-4.3629,-4.3638,-4.3691,-4.3712,-4.3718,-4.381,-4.3733,-4.3737,-4.3741,-4.3743,-4.397,-4.3972,0,0,0,0,0,0,-4.3497,-4.3509,-4.3634,-4.3638,-4.3546,-4.3598,-4.3606,-4.3638,-4.3674,-4.3677,-4.364,-4.3636,-4.3704,-4.3712,-4.372,-4.3821,-4.3738,-4.3743,-4.3746,-4.3967,-4.397,-4.3973,0,0,0,0,0,0,-4.3493,-4.3508,-4.3631,-4.3573,-4.3588,-4.3604,-4.364,-4.3641,-4.3662,-4.3681,-4.3683,-4.3659,-4.3702,-4.3713,-4.3782,-4.3823,-4.3746,-4.375,-4.3963,-4.3968,-4.3972,-4.4025,0,0,0,0,0,0,-4.3488,-4.3507,-4.3542,-4.3574,-4.3591,-4.3694,-4.3643,-4.3644,-4.3671,-4.3667,-4.3699,-4.3702,-4.3701,-4.3774,-4.3787,-4.3829,-4.3754,-4.396,-4.3965,-4.397,-4.402,-4.4031,-4.404,0,0,0,0,0,-4.3482,-4.3554,-4.3544,-4.3559,-4.3635,-4.3696,-4.3705,-4.3705,-4.3675,-4.3708,-4.372,-4.3701,-4.3817,-4.3782,-4.3796,-4.384,-4.3957,-4.3964,-4.397,-4.4015,-4.4029,-4.404,0,0,0,0,0,0,-4.3525,-4.3558,-4.3547,-4.3632,-4.3661,-4.369,-4.3733,-4.372,-4.3757,-4.3751,-4.3747,-4.3755,-4.3826,-4.384,-4.38,-4.3923,-4.3882,-4.3892,-4.3911,-4.3924,-4.3934,-4.3928,-4.3759,0,0,0,0,0,-4.3544,-4.3593,-4.3619,-4.369,-4.3706,-4.3717,-4.3744,-4.374,-4.377,-4.3782,-4.3799,-4.3828,-4.387,-4.3898,-4.3939,-4.4022,-4.4027,-4.4059,-4.4069,-4.4077,-4.4085,-4.4126,-4.414,-4.3995,-4.3995,-4.3994,0,0,-4.3584,-4.3608,-4.3639,-4.3699,-4.3722,-4.377,-4.3728,-4.3781,-4.3816,-4.379,-4.3856,-4.3869,-4.39,-4.3976,-4.401,-4.399,-4.4126,-4.4086,-4.4092,-4.4095,-4.4135,-4.4148,-4.416,-4.3999,-4.3998,-4.3998,0,0,-4.3681,-4.3706,-4.3767,-4.3791,-4.3826,-4.3832,-4.3847,-4.3878,-4.3886,-4.3952,-4.3933,-4.3973,-4.4048,-4.407,-4.4091,-4.4194,-4.4176,-4.4207,-4.426,-4.43,-4.4312,-4.4322,-4.4355,-4.4368,-4.4215,-4.4215,-4.4215,0,-4.3726,-4.38,-4.38,-4.3854,-4.3879,-4.3859,-4.3919,-4.3942,-4.3988,-4.4005,-4.3982,-4.4073,-4.4093,-4.4172,-4.4197,-4.4215,-4.4229,-4.4203,-4.431,-4.432,-4.433,-4.4362,-4.4375,-4.4219,-4.4218,-4.4218,-4.4218,0,-4.3851,-4.3902,-4.3947,-4.3993,-4.4023,-4.408,-4.4086,-4.4117,-4.4111,-4.4119,-4.4185,-4.4208,-4.4251,-4.427,-4.4265,-4.4348,-4.4333,-4.4311,-4.4269,-4.4347,-4.4377,-4.4389,-4.4223,-4.4222,-4.4221,-4.422,0,0,-4.3977,-4.4021,-4.4037,-4.4056,-4.4093,-4.4131,-4.4186,-4.4229,-4.4254,-4.4286,-4.433,-4.4392,-4.4371,-4.4395,-4.4391,-4.4427,-4.4503,-4.44,-4.44,-4.4416,-4.4592,-4.4607,-4.4622,-4.4493,-4.4495,-4.4497,-4.4589,0,-4.4075,-4.4172,-4.4172,-4.4261,-4.4306,-4.4287,-4.4334,-4.436,-4.4368,-4.4406,-4.4415,-4.4458,-4.4428,-4.4442,-4.4477,-4.4487,-4.4538,-4.4481,-4.453,-4.4532,-4.4521,-4.4638,-4.4655,-4.474,-4.4601,-4.4603,-4.4604,0,-4.4202,-4.4238,-4.4331,-4.4359,-4.4377,-4.442,-4.4458,-4.4496,-4.4524,-4.4527,-4.4553,-4.4543,-4.4596,-4.4554,-4.4624,-4.4585,-4.4605,-4.4613,-4.4616,-4.4619,-4.4571,-4.4641,-4.4768,-4.478,-4.4623,-4.4622,-4.462,0,-4.428,-4.4352,-4.4417,-4.4434,-4.4469,-4.4498,-4.4514,-4.4539,-4.4564,-4.4597,-4.4613,-4.4652,-4.4672,-4.4701,-4.4701,-4.4671,-4.4771,-4.473,-4.4773,-4.4773,-4.4793,-4.4791,-4.4922,-4.4811,-4.4811,-4.481,-4.481,0,-4.4387,-4.4444,-4.4452,-4.4491,-4.4554,-4.4553,-4.4613,-4.4626,-4.4648,-4.4688,-4.4674,-4.471,-4.4709,-4.4746,-4.4746,-4.4803,-4.4813,-4.4815,-4.4814,-4.4815,-4.4814,-4.4826,-4.4819,-4.4814,-4.4813,-4.4812,-4.4812,0,-4.4485,-4.4493,-4.4561,-4.4588,-4.4596,-4.464,-4.4662,-4.4698,-4.4705,-4.4755,-4.4766,-4.4777,-4.4819,-4.4822,-4.4872,-4.4871,-4.4939,-4.4933,-4.493,-4.4928,-4.4969,-4.4964,-4.5111,-4.5128,-4.5008,-4.5009,-4.501,0,-4.4552,-4.4595,-4.4626,-4.4652,-4.4669,-4.4712,-4.4737,-4.4737,-4.4764,-4.4798,-4.4829,-4.487,-4.4902,-4.497,-4.4981,-4.5017,-4.501,-4.5059,-4.5015,-4.5014,-4.5007,-4.5004,-4.5006,-4.5067,-4.5068,-4.5069,-4.507,0,-4.4668,-4.467,-4.4708,-4.4747,-4.4778,-4.4808,-4.4837,-4.4858,-4.4861,-4.4892,-4.4935,-4.496,-4.501,-4.505,-4.5085,-4.5098,-4.5084,-4.5084,-4.5095,-4.5095,-4.5091,-4.5091,-4.495,-4.508,-4.5079,-4.5078,-4.5078,-4.5077,-4.475,-4.4787,-4.4814,-4.4856,-4.4877,-4.4904,-4.4938,-4.495,-4.4986,-4.5027,-4.5025,-4.5072,-4.5096,-4.5142,-4.5158,-4.5193,-4.5176,-4.5194,-4.5198,-4.5201,-4.5204,-4.5087,-4.52,-4.52,-4.5199,-4.5199,-4.5199,0,-4.4863,-4.488,-4.4919,-4.4959,-4.4991,-4.4977,-4.5006,-4.5034,-4.5076,-4.51,-4.5133,-4.5181,-4.5219,-4.5233,-4.5269,-4.5294,-4.5288,-4.5304,-4.53,-4.5303,-4.5219,-4.5204,-4.5308,-4.5308,-4.5308,-4.5308,-4.5308,-4.5308,-4.4926,-4.4986,-4.499,-4.5059,-4.5075,-4.5122,-4.5139,-4.5163,-4.5182,-4.5237,-4.5269,-4.5278,-4.5297,-4.5334,-4.5368,-4.537,-4.5383,-4.5401,-4.54,-4.532,-4.5309,-4.5299,-4.5285,-4.5404,-4.5404,-4.5481,-4.5482,-4.5483]}]]